CW5920 Weather Reports


time (UTC)temp
C
wind
direction
speed
KPH
gust
KPH
rain 1hr
cm
rain 24hr
cm
rain mn
cm
humidity
%
barometer
mb
20260507114516 11 0.0 0.0 0.00 0.61 0.00 91 1020.0
20260507113516 11 0.0 0.0 0.00 0.61 0.00 91 1019.9
20260507112516 11 0.0 1.6 0.00 0.61 0.00 90 1019.8
20260507111516 11 270 1.6 6.4 0.00 0.61 0.00 90 1019.6
20260507110516 11 270 1.6 6.4 0.00 0.61 0.00 90 1019.4
20260507105536 11 270 3.2 6.4 0.00 0.61 0.00 90 1019.4
20260507104516 12 270 3.2 6.4 0.00 0.61 0.00 90 1019.3
20260507103516 12 270 3.2 9.7 0.00 0.61 0.00 90 1019.1
20260507102516 12 270 4.8 9.7 0.00 0.61 0.00 90 1018.7
20260507101517 12 0.0 3.2 0.00 0.61 0.00 89 1018.7
20260507100516 12 293 1.6 6.4 0.00 0.61 0.00 89 1018.6
20260507095516 12 293 1.6 6.4 0.00 0.61 0.00 89 1018.2
20260507094516 12 0.0 0.0 0.00 0.61 0.00 89 1018.3
20260507093516 12 0.0 0.0 0.00 0.61 0.00 89 1018.3
20260507092536 12 0.0 0.0 0.00 0.61 0.00 88 1017.9
20260507091516 12 293 1.6 6.4 0.00 0.61 0.00 88 1017.7
20260507090516 12 0.0 4.8 0.00 0.61 0.00 88 1017.8
20260507085517 12 0.0 1.6 0.00 0.61 0.61 88 1017.7
20260507084517 13 0.0 4.8 0.00 0.61 0.61 88 1017.5
20260507083517 13 293 1.6 8.0 0.00 0.61 0.61 88 1017.4
20260507082537 13 293 3.2 8.0 0.00 0.61 0.61 87 1017.1
20260507081517 13 293 3.2 8.0 0.00 0.61 0.61 87 1017.2
20260507080537 13 293 3.2 8.0 0.00 0.61 0.61 87 1017.5
20260507075517 13 293 1.6 8.0 0.00 0.61 0.61 87 1017.4
20260507074517 13 293 1.6 6.4 0.00 0.61 0.61 86 1017.4
20260507073517 13 293 1.6 6.4 0.00 0.61 0.61 86 1017.1
20260507072517 13 0.0 0.0 0.00 0.61 0.61 86 1017.0
20260507071517 13 0.0 3.2 0.00 0.61 0.61 86 1016.9
20260507070517 13 0.0 0.0 0.00 0.61 0.61 86 1016.6
20260507065537 14 315 1.6 8.0 0.00 0.61 0.61 86 1016.5
20260507064517 14 0.0 3.2 0.00 0.61 0.61 86 1016.4
20260507063517 14 0.0 4.8 0.00 0.61 0.61 85 1016.5
20260507062517 14 23 1.6 8.0 0.00 0.61 0.61 85 1016.3
20260507061537 14 0.0 4.8 0.00 0.61 0.61 85 1016.3
20260507060517 14 45 1.6 8.0 0.00 0.61 0.61 85 1016.4
20260507055517 14 0.0 4.8 0.00 0.61 0.61 85 1016.3
20260507054517 14 0 1.6 6.4 0.00 0.61 0.61 85 1016.5
20260507053517 14 0 1.6 9.7 0.00 0.61 0.61 84 1016.4
20260507052517 14 338 1.6 9.7 0.00 0.61 0.61 84 1016.4
20260507051517 14 338 4.8 16.1 0.00 0.61 0.61 84 1016.4
20260507050517 14 0 1.6 9.7 0.00 0.61 0.61 84 1016.4
20260507045517 14 0 3.2 12.9 0.00 0.61 0.61 84 1016.2
20260507044517 15 0 3.2 9.7 0.00 0.61 0.61 85 1016.2
20260507043517 15 338 3.2 12.9 0.00 0.61 0.61 85 1016.4
20260507042517 15 338 4.8 12.9 0.00 0.61 0.61 86 1016.4
20260507041557 15 338 3.2 12.9 0.00 0.61 0.61 86 1016.5
20260507040517 15 0 1.6 12.9 0.00 0.61 0.61 86 1016.4
20260507035537 15 23 1.6 9.7 0.00 0.61 0.61 86 1016.6
20260507034517 15 0 1.6 6.4 0.00 0.61 0.61 87 1016.5
20260507033517 15 23 1.6 12.9 0.00 0.61 0.61 87 1016.6
20260507032517 15 338 3.2 9.7 0.00 0.61 0.61 88 1016.4
20260507031517 15 338 3.2 9.7 0.00 0.61 0.61 89 1016.5
20260507030537 15 338 4.8 12.9 0.00 0.61 0.61 89 1016.2
20260507025517 15 315 4.8 11.3 0.00 0.61 0.61 90 1016.2
20260507024517 15 338 4.8 8.0 0.00 0.61 0.61 90 1016.2
20260507023517 15 0.0 6.4 0.00 0.61 0.61 90 1016.0
20260507022517 15 315 4.8 8.0 0.00 0.61 0.61 91 1015.7
20260507021517 15 338 3.2 9.7 0.00 0.61 0.61 91 1015.4
20260507020517 15 338 4.8 12.9 0.00 0.61 0.61 91 1015.2
20260507015537 15 0.0 0.0 0.00 0.61 0.61 91 1015.0
20260507014517 15 0.0 0.0 0.00 0.61 0.61 90 1014.7
20260507013637 15 0.0 0.0 0.00 0.61 0.61 90 1014.5
20260507012517 15 0.0 0.0 0.00 0.61 0.61 90 1014.3
20260507011517 15 0.0 3.2 0.00 0.61 0.61 90 1014.1
20260507010557 15 0.0 0.0 0.00 0.61 0.61 90 1014.0
20260507005517 15 0.0 0.0 0.00 0.61 0.61 90 1013.9
20260507004517 15 0.0 0.0 0.00 0.61 0.61 90 1013.9
20260507003517 15 0.0 0.0 0.00 0.61 0.61 90 1013.8
20260507002517 15 68 1.6 6.4 0.00 0.61 0.61 90 1013.9
20260507001517 15 23 1.6 6.4 0.00 0.61 0.61 90 1013.7
20260507000517 15 0.0 3.2 0.00 0.61 0.61 90 1013.7
20260506235517 15 0 1.6 4.8 0.00 0.61 0.61 90 1013.4
20260506234517 15 0.0 3.2 0.00 0.61 0.61 89 1013.4
20260506233517 15 0.0 4.8 0.00 0.61 0.61 89 1013.4
20260506232517 15 23 1.6 4.8 0.38 0.61 0.61 89 1013.2
20260506231517 15 23 1.6 8.0 0.43 0.61 0.61 88 1013.2
20260506230517 15 23 1.6 6.4 0.43 0.61 0.61 87 1013.1
20260506225517 15 0 1.6 3.2 0.43 0.61 0.61 87 1013.0
20260506224517 16 338 1.6 4.8 0.43 0.61 0.61 84 1013.2
20260506223517 16 293 1.6 8.0 0.43 0.61 0.61 82 1013.4
20260506222537 16 293 8.0 14.5 0.05 0.23 0.23 79 1013.1
20260506221517 17 293 6.4 14.5 0.00 0.18 0.18 77 1013.4
20260506220517 17 315 8.0 17.7 0.00 0.18 0.18 75 1012.7
20260506215517 17 293 9.7 16.1 0.00 0.18 0.18 75 1013.0
20260506214517 17 315 6.4 19.3 0.00 0.18 0.18 75 1013.2
20260506213516 17 315 8.0 16.1 0.00 0.18 0.18 75 1013.0
20260506212517 16 293 8.0 16.1 0.00 0.18 0.18 75 1013.2
20260506211517 16 293 4.8 14.5 0.00 0.18 0.18 76 1013.1
20260506210517 16 315 6.4 14.5 0.00 0.18 0.18 76 1012.8
20260506205517 16 293 8.0 17.7 0.00 0.18 0.18 76 1013.1
20260506204517 16 293 4.8 14.5 0.00 0.18 0.18 78 1013.2
20260506203517 16 315 4.8 11.3 0.00 0.18 0.18 79 1013.2
20260506202517 16 315 6.4 14.5 0.00 0.18 0.18 79 1013.4
20260506201517 15 293 9.7 19.3 0.00 0.18 0.18 79 1013.4
20260506200516 15 293 9.7 19.3 0.00 0.18 0.18 79 1013.6
20260506195517 15 315 6.4 16.1 0.00 0.18 0.18 82 1013.7
20260506194517 15 315 3.2 8.0 0.00 0.18 0.18 83 1013.9
20260506193517 14 315 9.7 19.3 0.00 0.18 0.18 83 1014.0
20260506192517 14 270 6.4 16.1 0.00 0.18 0.18 84 1014.2
20260506191537 14 315 4.8 14.5 0.00 0.18 0.18 86 1014.0
20260506190517 13 315 8.0 16.1 0.00 0.18 0.18 86 1014.2
20260506185517 13 293 4.8 14.5 0.00 0.18 0.18 86 1014.4
20260506184517 13 270 6.4 12.9 0.00 0.18 0.18 87 1014.5
20260506183517 12 293 4.8 17.7 0.00 0.18 0.18 87 1014.6
20260506182517 12 270 3.2 9.7 0.00 0.18 0.18 87 1014.8
20260506181516 12 315 3.2 14.5 0.00 0.18 0.18 88 1014.3
20260506180517 12 315 8.0 19.3 0.00 0.18 0.18 89 1013.7
20260506175516 12 293 17.7 25.7 0.00 0.18 0.18 89 1013.0
20260506174517 12 315 14.5 22.5 0.00 0.18 0.18 90 1012.9
20260506173516 12 315 14.5 24.1 0.00 0.18 0.18 90 1012.9
20260506172516 12 315 12.9 25.7 0.00 0.18 0.18 91 1013.2
20260506171517 12 315 9.7 17.7 0.00 0.18 0.18 91 1013.8
20260506170517 12 315 8.0 14.5 0.00 0.18 0.18 91 1013.7
20260506165516 12 315 8.0 16.1 0.00 0.18 0.18 91 1013.7
20260506164517 12 315 9.7 19.3 0.00 0.18 0.18 91 1014.0
20260506163517 12 315 8.0 17.7 0.00 0.18 0.18 91 1013.8
20260506162536 12 315 11.3 20.9 0.00 0.18 0.18 91 1013.4
20260506161517 12 315 9.7 22.5 0.00 0.18 0.18 92 1013.6
20260506160516 12 315 11.3 20.9 0.00 0.18 0.18 92 1013.3
20260506155517 12 315 9.7 17.7 0.00 0.18 0.18 92 1013.5
20260506154516 12 338 4.8 12.9 0.05 0.18 0.18 91 1013.4
20260506153536 11 315 6.4 17.7 0.18 0.18 0.18 91 1013.7
20260506152517 11 315 9.7 24.1 0.18 0.18 0.18 91 1013.0
20260506151516 11 315 4.8 14.5 0.18 0.18 0.18 90 1013.6
20260506150517 11 315 4.8 16.1 0.18 0.18 0.18 89 1014.1
20260506145537 11 293 8.0 17.7 0.18 0.18 0.18 88 1014.8
20260506144516 11 315 8.0 19.3 0.13 0.13 0.13 87 1014.1
20260506143536 11 293 1.6 14.5 0.00 0.00 0.00 86 1015.9
20260506142516 11 293 6.4 14.5 0.00 0.00 0.00 86 1015.4
20260506141516 11 293 14.5 25.7 0.00 0.00 0.00 85 1013.8
20260506140517 12 293 12.9 20.9 0.00 0.00 0.00 85 1013.3
20260506135516 12 293 9.7 24.1 0.00 0.00 0.00 84 1013.8
20260506134517 12 293 12.9 24.1 0.00 0.00 0.00 84 1013.6
20260506133517 12 315 14.5 24.1 0.00 0.00 0.00 83 1013.5
20260506132517 12 293 14.5 22.5 0.00 0.00 0.00 82 1013.2
20260506131516 12 293 12.9 24.1 0.00 0.00 0.00 82 1012.9
20260506130516 12 315 12.9 22.5 0.00 0.00 0.00 81 1012.7
20260506125517 12 315 12.9 22.5 0.00 0.00 0.00 81 1012.4
20260506124516 12 315 14.5 24.1 0.00 0.00 0.00 80 1012.2
20260506123516 12 315 11.3 20.9 0.00 0.00 0.00 81 1012.3
20260506122517 13 315 14.5 25.7 0.00 0.00 0.00 81 1012.2
20260506121516 13 315 12.9 20.9 0.00 0.00 0.00 81 1012.1
20260506120516 13 315 12.9 25.7 0.00 0.00 0.00 80 1011.9
20260506115517 13 293 12.9 22.5 0.00 0.00 0.00 80 1012.1